Time,TemperatureF,DewpointF,PressureIn,WindDirection,WindDirectionDegrees,WindSpeedMPH,WindSpeedGustMPH,Humidity,HourlyPrecipIn,Conditions,Clouds,dailyrainin,SoftwareType,DateUTC
2013-01-18 00:01:00,31.3,20.2,29.96,NE,35,0.0,0.0,63,0.00,,OVC036,0.00,VWS V13.00,2013-01-18 05:01:00,
2013-01-18 00:02:00,31.3,20.2,29.96,NE,35,0.0,0.0,63,0.00,,OVC036,0.00,VWS V13.00,2013-01-18 05:02:00,
2013-01-18 00:03:00,31.1,20.0,29.96,NE,35,0.0,0.0,63,0.00,,OVC036,0.00,VWS V13.00,2013-01-18 05:03:00,
2013-01-18 00:08:00,31.1,20.0,29.96,NE,35,2.2,4.0,63,0.00,,OVC036,0.00,VWS V13.00,2013-01-18 05:08:00,
2013-01-18 00:13:00,31.1,20.0,29.96,NE,35,2.7,4.0,63,0.00,,OVC036,0.00,VWS V13.00,2013-01-18 05:13:00,
2013-01-18 00:18:00,31.1,20.0,29.96,NE,35,0.0,4.0,63,0.00,,OVC036,0.00,VWS V13.00,2013-01-18 05:18:00,
2013-01-18 00:23:00,30.9,20.2,29.96,NE,35,2.2,3.1,64,0.00,,OVC036,0.00,VWS V13.00,2013-01-18 05:23:00,
2013-01-18 00:28:00,30.9,20.2,29.96,NE,35,0.0,3.1,64,0.00,,OVC036,0.00,VWS V13.00,2013-01-18 05:28:00,
2013-01-18 00:33:00,30.9,20.2,29.93,NE,35,2.7,3.6,64,0.00,,OVC036,0.00,VWS V13.00,2013-01-18 05:33:00,
2013-01-18 00:38:00,30.7,20.0,29.93,NE,35,0.0,3.6,64,0.00,,OVC032,0.00,VWS V13.00,2013-01-18 05:38:00,
2013-01-18 00:43:00,30.7,20.0,29.93,NE,35,0.0,2.7,64,0.00,,OVC032,0.00,VWS V13.00,2013-01-18 05:43:00,
2013-01-18 00:49:00,30.7,20.4,29.93,NE,35,0.0,3.1,65,0.00,,OVC032,0.00,VWS V13.00,2013-01-18 05:49:00,
2013-01-18 00:54:00,30.6,20.2,29.93,NE,35,0.0,3.1,65,0.00,,OVC032,0.00,VWS V13.00,2013-01-18 05:54:00,
2013-01-18 00:59:00,30.6,20.2,29.93,NE,35,0.0,3.1,65,0.00,,OVC032,0.00,VWS V13.00,2013-01-18 05:59:00,
2013-01-18 01:04:00,30.6,20.2,29.99,NE,35,0.0,0.0,65,0.00,,OVC032,0.00,VWS V13.00,2013-01-18 06:04:00,
2013-01-18 01:09:00,30.6,20.2,29.99,NE,35,0.0,0.0,65,0.00,,OVC032,0.00,VWS V13.00,2013-01-18 06:09:00,
2013-01-18 01:14:00,30.6,20.2,29.99,NE,35,0.0,0.0,65,0.00,,OVC032,0.00,VWS V13.00,2013-01-18 06:14:00,
2013-01-18 01:19:00,30.4,20.4,29.99,NE,35,0.0,0.0,66,0.00,,OVC032,0.00,VWS V13.00,2013-01-18 06:19:00,
2013-01-18 01:24:00,30.4,20.4,29.99,NE,35,0.0,0.0,66,0.00,,OVC032,0.00,VWS V13.00,2013-01-18 06:24:00,
2013-01-18 01:29:00,30.6,20.6,29.99,NE,35,0.0,0.0,66,0.00,,OVC032,0.00,VWS V13.00,2013-01-18 06:29:00,
2013-01-18 01:34:00,30.6,20.6,29.99,NE,35,0.0,0.0,66,0.00,,OVC032,0.00,VWS V13.00,2013-01-18 06:34:00,
2013-01-18 01:39:00,30.6,20.6,29.99,NE,35,0.0,2.2,66,0.00,,OVC034,0.00,VWS V13.00,2013-01-18 06:39:00,
2013-01-18 01:44:00,30.6,20.6,29.99,NE,35,0.0,0.0,66,0.00,,OVC034,0.00,VWS V13.00,2013-01-18 06:44:00,
2013-01-18 01:49:00,30.4,20.4,29.99,NE,44,0.0,2.7,66,0.00,,OVC034,0.00,VWS V13.00,2013-01-18 06:49:00,
2013-01-18 01:54:00,30.4,20.8,29.99,NE,44,0.0,2.7,67,0.00,,OVC034,0.00,VWS V13.00,2013-01-18 06:54:00,
2013-01-18 01:59:00,30.4,20.8,29.99,NE,44,0.0,2.7,67,0.00,,OVC034,0.00,VWS V13.00,2013-01-18 06:59:00,
2013-01-18 02:04:00,30.4,20.8,29.99,NE,44,0.0,0.0,67,0.00,,OVC034,0.00,VWS V13.00,2013-01-18 07:04:00,
2013-01-18 02:09:00,30.2,20.9,29.99,NNE,24,0.0,0.0,68,0.00,,OVC034,0.00,VWS V13.00,2013-01-18 07:09:00,
2013-01-18 02:14:00,30.2,20.6,29.99,North,0,0.0,0.0,67,0.00,,OVC034,0.00,VWS V13.00,2013-01-18 07:14:00,
2013-01-18 02:19:00,29.7,19.7,30.02,North,0,0.0,0.0,66,0.00,,OVC034,0.00,VWS V13.00,2013-01-18 07:19:00,
2013-01-18 02:24:00,29.3,19.4,30.02,North,0,0.0,0.0,66,0.00,,OVC034,0.00,VWS V13.00,2013-01-18 07:24:00,
2013-01-18 02:29:00,29.1,19.5,30.02,North,0,0.0,0.0,67,0.00,,OVC034,0.00,VWS V13.00,2013-01-18 07:29:00,
2013-01-18 02:35:00,28.9,19.4,30.02,North,0,0.0,0.0,67,0.00,,OVC034,0.00,VWS V13.00,2013-01-18 07:35:00,
2013-01-18 02:40:00,28.9,19.7,30.02,North,0,0.0,0.0,68,0.00,,OVC050,0.00,VWS V13.00,2013-01-18 07:40:00,
2013-01-18 02:45:00,28.8,19.5,30.02,North,0,0.0,0.0,68,0.00,,OVC050,0.00,VWS V13.00,2013-01-18 07:45:00,
2013-01-18 02:50:00,28.4,19.2,30.02,North,0,0.0,0.0,68,0.00,,OVC050,0.00,VWS V13.00,2013-01-18 07:50:00,
2013-01-18 02:55:00,28.2,19.0,30.02,North,0,0.0,0.0,68,0.00,,OVC050,0.00,VWS V13.00,2013-01-18 07:55:00,
2013-01-18 03:00:00,28.2,19.0,30.02,North,0,0.0,0.0,68,0.00,,OVC050,0.00,VWS V13.00,2013-01-18 08:00:00,
2013-01-18 03:05:00,27.9,18.7,30.02,North,0,0.0,0.0,68,0.00,,OVC050,0.00,VWS V13.00,2013-01-18 08:05:00,
2013-01-18 03:10:00,27.7,18.9,30.02,North,0,0.0,0.0,69,0.00,,OVC050,0.00,VWS V13.00,2013-01-18 08:10:00,
2013-01-18 03:15:00,27.5,19.0,30.02,North,0,0.0,0.0,70,0.00,,OVC050,0.00,VWS V13.00,2013-01-18 08:15:00,
2013-01-18 03:20:00,27.3,18.8,30.02,North,0,0.0,0.0,70,0.00,,OVC050,0.00,VWS V13.00,2013-01-18 08:20:00,
2013-01-18 03:25:00,27.1,18.7,30.02,North,0,0.0,0.0,70,0.00,,OVC050,0.00,VWS V13.00,2013-01-18 08:25:00,
2013-01-18 03:30:00,27.1,18.7,30.02,North,0,0.0,0.0,70,0.00,,OVC050,0.00,VWS V13.00,2013-01-18 08:30:00,
2013-01-18 03:35:00,27.0,18.5,30.02,North,0,0.0,0.0,70,0.00,,OVC060,0.00,VWS V13.00,2013-01-18 08:35:00,
2013-01-18 03:40:00,27.0,18.5,30.02,North,0,0.0,0.0,70,0.00,,OVC060,0.00,VWS V13.00,2013-01-18 08:40:00,
2013-01-18 03:45:00,26.6,18.1,30.02,North,0,0.0,0.0,70,0.00,,OVC060,0.00,VWS V13.00,2013-01-18 08:45:00,
2013-01-18 03:50:00,26.8,18.3,30.02,North,0,0.0,0.0,70,0.00,,OVC060,0.00,VWS V13.00,2013-01-18 08:50:00,
2013-01-18 03:55:00,27.0,18.5,30.02,North,0,0.0,0.0,70,0.00,,OVC060,0.00,VWS V13.00,2013-01-18 08:55:00,
2013-01-18 04:00:00,27.0,18.8,30.05,North,0,0.0,0.0,71,0.00,,OVC060,0.00,VWS V13.00,2013-01-18 09:00:00,
2013-01-18 04:05:00,27.0,18.8,30.05,North,0,0.0,0.0,71,0.00,,OVC060,0.00,VWS V13.00,2013-01-18 09:05:00,
2013-01-18 04:11:00,27.0,18.8,30.05,North,0,0.0,0.0,71,0.00,,OVC060,0.00,VWS V13.00,2013-01-18 09:11:00,
2013-01-18 04:16:00,27.0,18.5,30.05,North,0,0.0,0.0,70,0.00,,OVC060,0.00,VWS V13.00,2013-01-18 09:16:00,
2013-01-18 04:21:00,27.0,18.8,30.05,North,0,0.0,0.0,71,0.00,,OVC060,0.00,VWS V13.00,2013-01-18 09:21:00,
2013-01-18 04:26:00,27.0,18.5,30.05,North,0,0.0,0.0,70,0.00,,OVC060,0.00,VWS V13.00,2013-01-18 09:26:00,
2013-01-18 04:31:00,26.8,18.3,30.05,North,0,0.0,0.0,70,0.00,,OVC060,0.00,VWS V13.00,2013-01-18 09:31:00,
2013-01-18 04:36:00,26.6,18.1,30.05,North,0,0.0,0.0,70,0.00,,OVC050,0.00,VWS V13.00,2013-01-18 09:36:00,
2013-01-18 04:41:00,26.6,17.8,30.05,North,0,0.0,0.0,69,0.00,,OVC050,0.00,VWS V13.00,2013-01-18 09:41:00,
2013-01-18 04:46:00,26.6,17.8,30.08,North,0,0.0,0.0,69,0.00,,OVC050,0.00,VWS V13.00,2013-01-18 09:46:00,
2013-01-18 04:51:00,26.2,17.5,30.08,North,0,0.0,0.0,69,0.00,,OVC050,0.00,VWS V13.00,2013-01-18 09:51:00,
2013-01-18 04:56:00,26.1,17.0,30.08,North,0,0.0,0.0,68,0.00,,OVC050,0.00,VWS V13.00,2013-01-18 09:56:00,
2013-01-18 05:01:00,25.9,16.8,30.08,North,0,0.0,0.0,68,0.00,,OVC050,0.00,VWS V13.00,2013-01-18 10:01:00,
2013-01-18 05:06:00,26.1,17.0,30.08,North,0,0.0,0.0,68,0.00,,OVC050,0.00,VWS V13.00,2013-01-18 10:06:00,
2013-01-18 05:11:00,26.1,17.0,30.08,North,0,0.0,0.0,68,0.00,,OVC050,0.00,VWS V13.00,2013-01-18 10:11:00,
2013-01-18 05:16:00,26.1,17.0,30.08,North,0,0.0,0.0,68,0.00,,OVC050,0.00,VWS V13.00,2013-01-18 10:16:00,
2013-01-18 05:21:00,26.1,16.6,30.08,North,0,0.0,0.0,67,0.00,,OVC050,0.00,VWS V13.00,2013-01-18 10:21:00,
2013-01-18 05:26:00,26.1,16.3,30.08,North,0,0.0,0.0,66,0.00,,OVC050,0.00,VWS V13.00,2013-01-18 10:26:00,
2013-01-18 05:31:00,26.1,16.3,30.08,North,0,0.0,0.0,66,0.00,,OVC050,0.00,VWS V13.00,2013-01-18 10:31:00,
2013-01-18 05:36:00,26.1,15.9,30.11,North,0,0.0,0.0,65,0.00,,OVC045,0.00,VWS V13.00,2013-01-18 10:36:00,
2013-01-18 05:41:00,26.1,15.9,30.11,North,0,0.0,0.0,65,0.00,,OVC045,0.00,VWS V13.00,2013-01-18 10:41:00,
2013-01-18 05:46:00,25.9,15.0,30.11,North,0,0.0,0.0,63,0.00,,OVC045,0.00,VWS V13.00,2013-01-18 10:46:00,
2013-01-18 05:52:00,25.9,14.7,30.11,North,0,0.0,0.0,62,0.00,,OVC045,0.00,VWS V13.00,2013-01-18 10:52:00,
2013-01-18 05:57:00,25.7,14.1,30.11,North,0,0.0,0.0,61,0.00,,OVC045,0.00,VWS V13.00,2013-01-18 10:57:00,
2013-01-18 06:02:00,25.5,13.6,30.14,North,0,0.0,0.0,60,0.00,,OVC045,0.00,VWS V13.00,2013-01-18 11:02:00,
2013-01-18 06:07:00,25.3,12.6,30.14,North,0,0.0,0.0,58,0.00,,OVC045,0.00,VWS V13.00,2013-01-18 11:07:00,
2013-01-18 06:12:00,25.2,12.5,30.14,North,0,0.0,0.0,58,0.00,,OVC045,0.00,VWS V13.00,2013-01-18 11:12:00,
2013-01-18 06:17:00,25.0,11.5,30.14,North,0,0.0,0.0,56,0.00,,OVC045,0.00,VWS V13.00,2013-01-18 11:17:00,
2013-01-18 06:22:00,24.6,11.6,30.14,North,0,0.0,0.0,57,0.00,,OVC045,0.00,VWS V13.00,2013-01-18 11:22:00,
2013-01-18 06:27:00,24.4,11.4,30.14,North,0,0.0,0.0,57,0.00,,OVC045,0.00,VWS V13.00,2013-01-18 11:27:00,
2013-01-18 06:32:00,24.3,10.8,30.14,North,0,0.0,0.0,56,0.00,,OVC045,0.00,VWS V13.00,2013-01-18 11:32:00,
2013-01-18 06:37:00,24.1,10.7,30.14,North,0,0.0,0.0,56,0.00,,BKN044,0.00,VWS V13.00,2013-01-18 11:37:00,
2013-01-18 06:42:00,23.7,9.9,30.14,North,0,0.0,0.0,55,0.00,,BKN044,0.00,VWS V13.00,2013-01-18 11:42:00,
2013-01-18 06:47:00,23.5,9.4,30.16,North,0,0.0,0.0,54,0.00,,BKN044,0.00,VWS V13.00,2013-01-18 11:47:00,
2013-01-18 06:52:00,23.2,8.6,30.16,North,0,0.0,0.0,53,0.00,,BKN044,0.00,VWS V13.00,2013-01-18 11:52:00,
2013-01-18 06:57:00,23.0,8.4,30.16,North,0,0.0,0.0,53,0.00,,BKN044,0.00,VWS V13.00,2013-01-18 11:57:00,
2013-01-18 07:02:00,22.8,8.3,30.19,North,357,0.0,0.0,53,0.00,,BKN044,0.00,VWS V13.00,2013-01-18 12:02:00,
2013-01-18 07:07:00,22.6,8.1,30.19,North,0,0.0,0.0,53,0.00,,BKN044,0.00,VWS V13.00,2013-01-18 12:07:00,
2013-01-18 07:12:00,22.6,8.1,30.19,North,0,0.0,0.0,53,0.00,,BKN044,0.00,VWS V13.00,2013-01-18 12:12:00,
2013-01-18 07:17:00,22.5,7.9,30.19,North,0,0.0,0.0,53,0.00,,BKN044,0.00,VWS V13.00,2013-01-18 12:17:00,
2013-01-18 07:23:00,22.1,7.2,30.19,North,0,0.0,0.0,52,0.00,,BKN044,0.00,VWS V13.00,2013-01-18 12:23:00,
2013-01-18 07:28:00,21.9,7.0,30.19,North,0,0.0,0.0,52,0.00,,BKN044,0.00,VWS V13.00,2013-01-18 12:28:00,
2013-01-18 07:33:00,21.7,6.4,30.22,North,0,0.0,0.0,51,0.00,,BKN044,0.00,VWS V13.00,2013-01-18 12:33:00,
2013-01-18 07:38:00,21.6,6.2,30.22,North,0,0.0,0.0,51,0.00,,FEW037,0.00,VWS V13.00,2013-01-18 12:38:00,
2013-01-18 07:43:00,21.4,6.1,30.22,North,0,0.0,0.0,51,0.00,,FEW037,0.00,VWS V13.00,2013-01-18 12:43:00,
2013-01-18 07:48:00,21.2,6.3,30.19,North,0,0.0,0.0,52,0.00,,FEW037,0.00,VWS V13.00,2013-01-18 12:48:00,
2013-01-18 07:53:00,21.4,6.1,30.19,North,0,0.0,0.0,51,0.00,,FEW037,0.00,VWS V13.00,2013-01-18 12:53:00,
2013-01-18 07:58:00,21.6,6.7,30.19,North,0,0.0,0.0,52,0.00,,FEW037,0.00,VWS V13.00,2013-01-18 12:58:00,
2013-01-18 08:03:00,22.1,6.8,30.22,North,0,0.0,0.0,51,0.00,,FEW037,0.00,VWS V13.00,2013-01-18 13:03:00,
2013-01-18 08:08:00,22.6,7.2,30.22,North,0,0.0,0.0,51,0.00,,FEW037,0.00,VWS V13.00,2013-01-18 13:08:00,
2013-01-18 08:13:00,22.8,7.4,30.22,North,0,0.0,0.0,51,0.00,,FEW037,0.00,VWS V13.00,2013-01-18 13:13:00,
2013-01-18 08:19:00,23.0,7.1,30.22,North,0,0.0,0.0,50,0.00,,FEW037,0.00,VWS V13.00,2013-01-18 13:19:00,
2013-01-18 08:24:00,23.4,7.0,30.22,North,0,0.0,0.0,49,0.00,,FEW037,0.00,VWS V13.00,2013-01-18 13:24:00,
2013-01-18 08:29:00,23.5,7.2,30.22,North,0,0.0,0.0,49,0.00,,FEW037,0.00,VWS V13.00,2013-01-18 13:29:00,
2013-01-18 08:34:00,24.1,7.7,30.25,North,0,0.0,0.0,49,0.00,,FEW037,0.00,VWS V13.00,2013-01-18 13:34:00,
2013-01-18 08:39:00,24.4,8.0,30.25,North,0,0.0,0.0,49,0.00,,FEW031,0.00,VWS V13.00,2013-01-18 13:39:00,
2013-01-18 08:44:00,24.4,7.6,30.25,North,0,0.0,0.0,48,0.00,,FEW031,0.00,VWS V13.00,2013-01-18 13:44:00,
2013-01-18 08:49:00,24.8,7.9,30.28,North,0,0.0,0.0,48,0.00,,FEW031,0.00,VWS V13.00,2013-01-18 13:49:00,
2013-01-18 08:54:00,25.2,8.2,30.28,North,0,0.0,0.0,48,0.00,,FEW031,0.00,VWS V13.00,2013-01-18 13:54:00,
2013-01-18 08:59:00,25.2,7.8,30.28,North,0,0.0,0.0,47,0.00,,FEW031,0.00,VWS V13.00,2013-01-18 13:59:00,
2013-01-18 09:04:00,25.3,7.9,30.28,North,0,0.0,0.0,47,0.00,,FEW031,0.00,VWS V13.00,2013-01-18 14:04:00,
2013-01-18 09:09:00,25.3,7.9,30.28,North,0,0.0,0.0,47,0.00,,FEW031,0.00,VWS V13.00,2013-01-18 14:09:00,
2013-01-18 09:14:00,25.7,7.8,30.28,North,0,0.0,0.0,46,0.00,,FEW031,0.00,VWS V13.00,2013-01-18 14:14:00,
2013-01-18 09:19:00,25.5,7.6,30.31,North,0,0.0,0.0,46,0.00,,FEW031,0.00,VWS V13.00,2013-01-18 14:19:00,
2013-01-18 09:24:00,25.9,8.0,30.31,North,0,0.0,0.0,46,0.00,,FEW031,0.00,VWS V13.00,2013-01-18 14:24:00,
2013-01-18 09:29:00,25.9,8.0,30.31,North,0,0.0,0.0,46,0.00,,FEW031,0.00,VWS V13.00,2013-01-18 14:29:00,
2013-01-18 09:34:00,26.8,8.8,30.31,North,0,0.0,0.0,46,0.00,,FEW031,0.00,VWS V13.00,2013-01-18 14:34:00,
2013-01-18 09:39:00,25.5,7.6,30.31,North,0,0.0,0.0,46,0.00,,BKN032,0.00,VWS V13.00,2013-01-18 14:39:00,
2013-01-18 09:44:00,24.8,7.0,30.31,North,0,0.0,0.0,46,0.00,,BKN032,0.00,VWS V13.00,2013-01-18 14:44:00,
2013-01-18 09:49:00,24.8,7.0,30.31,North,0,0.0,0.0,46,0.00,,BKN032,0.00,VWS V13.00,2013-01-18 14:49:00,
2013-01-18 09:54:00,24.8,7.0,30.31,North,0,0.0,0.0,46,0.00,,BKN032,0.00,VWS V13.00,2013-01-18 14:54:00,
2013-01-18 10:00:00,24.8,7.0,30.31,North,0,0.0,0.0,46,0.00,,BKN032,0.00,VWS V13.00,2013-01-18 15:00:00,
2013-01-18 10:05:00,25.0,7.1,30.34,North,0,0.0,0.0,46,0.00,,BKN032,0.00,VWS V13.00,2013-01-18 15:05:00,
2013-01-18 10:10:00,25.3,7.5,30.34,North,0,0.0,0.0,46,0.00,,BKN032,0.00,VWS V13.00,2013-01-18 15:10:00,
2013-01-18 10:15:00,25.2,6.8,30.34,North,0,0.0,0.0,45,0.00,,BKN032,0.00,VWS V13.00,2013-01-18 15:15:00,
2013-01-18 10:20:00,25.3,7.0,30.34,North,0,0.0,0.0,45,0.00,,BKN032,0.00,VWS V13.00,2013-01-18 15:20:00,
2013-01-18 10:25:00,25.0,6.7,30.34,North,0,0.0,0.0,45,0.00,,BKN032,0.00,VWS V13.00,2013-01-18 15:25:00,
2013-01-18 10:30:00,24.4,6.2,30.34,North,0,0.0,0.0,45,0.00,,BKN032,0.00,VWS V13.00,2013-01-18 15:30:00,
2013-01-18 10:35:00,25.3,6.5,30.34,North,0,0.0,0.0,44,0.00,,CLR,0.00,VWS V13.00,2013-01-18 15:35:00,
2013-01-18 10:40:00,27.0,8.0,30.34,North,0,0.0,0.0,44,0.00,,CLR,0.00,VWS V13.00,2013-01-18 15:40:00,
2013-01-18 10:45:00,26.6,7.1,30.34,North,0,0.0,0.0,43,0.00,,CLR,0.00,VWS V13.00,2013-01-18 15:45:00,
2013-01-18 10:50:00,26.4,7.0,30.34,North,0,0.0,0.0,43,0.00,,CLR,0.00,VWS V13.00,2013-01-18 15:50:00,
2013-01-18 10:55:00,26.8,6.8,30.34,North,0,0.0,0.0,42,0.00,,CLR,0.00,VWS V13.00,2013-01-18 15:55:00,
2013-01-18 11:00:00,27.0,6.9,30.34,North,0,0.0,0.0,42,0.00,,CLR,0.00,VWS V13.00,2013-01-18 16:00:00,
2013-01-18 11:05:00,27.7,7.6,30.34,North,0,0.0,0.0,42,0.00,,CLR,0.00,VWS V13.00,2013-01-18 16:05:00,
2013-01-18 11:10:00,27.0,6.9,30.34,North,0,0.0,0.0,42,0.00,,CLR,0.00,VWS V13.00,2013-01-18 16:10:00,
2013-01-18 11:15:00,27.9,7.8,30.34,North,0,0.0,0.0,42,0.00,,CLR,0.00,VWS V13.00,2013-01-18 16:15:00,
2013-01-18 11:20:00,27.1,7.1,30.34,North,0,0.0,0.0,42,0.00,,CLR,0.00,VWS V13.00,2013-01-18 16:20:00,
2013-01-18 11:25:00,28.2,8.1,30.34,North,0,0.0,0.0,42,0.00,,CLR,0.00,VWS V13.00,2013-01-18 16:25:00,
2013-01-18 11:30:00,28.6,7.9,30.34,North,0,0.0,0.0,41,0.00,,CLR,0.00,VWS V13.00,2013-01-18 16:30:00,
2013-01-18 11:35:00,29.5,9.2,30.34,North,0,0.0,0.0,42,0.00,,FEW046,0.00,VWS V13.00,2013-01-18 16:35:00,
2013-01-18 11:40:00,29.1,8.4,30.34,North,0,0.0,0.0,41,0.00,,FEW046,0.00,VWS V13.00,2013-01-18 16:40:00,
2013-01-18 11:46:00,28.8,8.0,30.34,North,0,0.0,0.0,41,0.00,,FEW046,0.00,VWS V13.00,2013-01-18 16:46:00,
2013-01-18 11:51:00,28.6,7.9,30.34,North,0,0.0,0.0,41,0.00,,FEW046,0.00,VWS V13.00,2013-01-18 16:51:00,
2013-01-18 11:56:00,28.0,7.4,30.34,North,0,0.0,0.0,41,0.00,,FEW046,0.00,VWS V13.00,2013-01-18 16:56:00,
2013-01-18 12:01:00,27.7,7.1,30.34,North,0,0.0,0.0,41,0.00,,FEW046,0.00,VWS V13.00,2013-01-18 17:01:00,
2013-01-18 12:06:00,28.4,8.2,30.34,North,0,0.0,0.0,42,0.00,,FEW046,0.00,VWS V13.00,2013-01-18 17:06:00,
2013-01-18 12:11:00,28.2,8.1,30.34,North,0,0.0,0.0,42,0.00,,FEW046,0.00,VWS V13.00,2013-01-18 17:11:00,
2013-01-18 12:16:00,27.3,6.7,30.31,North,0,0.0,0.0,41,0.00,,FEW046,0.00,VWS V13.00,2013-01-18 17:16:00,
2013-01-18 12:21:00,27.9,7.2,30.31,North,0,0.0,0.0,41,0.00,,FEW046,0.00,VWS V13.00,2013-01-18 17:21:00,
2013-01-18 12:26:00,27.1,6.6,30.31,North,0,0.0,0.0,41,0.00,,FEW046,0.00,VWS V13.00,2013-01-18 17:26:00,
2013-01-18 12:31:00,27.0,6.4,30.31,North,0,0.0,0.0,41,0.00,,FEW046,0.00,VWS V13.00,2013-01-18 17:31:00,
2013-01-18 12:36:00,27.7,7.1,30.31,North,0,0.0,0.0,41,0.00,,FEW050,0.00,VWS V13.00,2013-01-18 17:36:00,
2013-01-18 12:41:00,28.4,7.7,30.31,North,0,0.0,0.0,41,0.00,,FEW050,0.00,VWS V13.00,2013-01-18 17:41:00,
2013-01-18 12:46:00,28.6,7.9,30.31,North,0,0.0,0.0,41,0.00,,FEW050,0.00,VWS V13.00,2013-01-18 17:46:00,
2013-01-18 12:51:00,28.8,8.0,30.31,North,0,0.0,0.0,41,0.00,,FEW050,0.00,VWS V13.00,2013-01-18 17:51:00,
2013-01-18 12:56:00,28.2,7.6,30.31,North,0,0.0,0.0,41,0.00,,FEW050,0.00,VWS V13.00,2013-01-18 17:56:00,
2013-01-18 13:01:00,28.6,7.9,30.31,North,0,0.0,0.0,41,0.00,,FEW050,0.00,VWS V13.00,2013-01-18 18:01:00,
2013-01-18 13:07:00,28.0,7.4,30.31,North,0,0.0,0.0,41,0.00,,FEW050,0.00,VWS V13.00,2013-01-18 18:07:00,
2013-01-18 13:12:00,27.9,7.2,30.31,North,0,0.0,0.0,41,0.00,,FEW050,0.00,VWS V13.00,2013-01-18 18:12:00,
2013-01-18 13:17:00,28.0,7.4,30.34,North,350,0.0,0.0,41,0.00,,FEW050,0.00,VWS V13.00,2013-01-18 18:17:00,
2013-01-18 13:22:00,27.9,7.2,30.34,NNW,345,0.0,0.0,41,0.00,,FEW050,0.00,VWS V13.00,2013-01-18 18:22:00,
2013-01-18 13:27:00,28.0,7.4,30.34,North,353,0.0,0.0,41,0.00,,FEW050,0.00,VWS V13.00,2013-01-18 18:27:00,
2013-01-18 13:32:00,28.6,7.9,30.34,North,350,0.0,0.0,41,0.00,,FEW050,0.00,VWS V13.00,2013-01-18 18:32:00,
2013-01-18 13:37:00,28.4,7.7,30.34,North,353,0.0,0.0,41,0.00,,CLR,0.00,VWS V13.00,2013-01-18 18:37:00,
2013-01-18 13:42:00,28.0,7.4,30.34,North,350,0.0,0.0,41,0.00,,CLR,0.00,VWS V13.00,2013-01-18 18:42:00,
2013-01-18 13:47:00,28.4,7.7,30.34,North,350,0.0,0.0,41,0.00,,CLR,0.00,VWS V13.00,2013-01-18 18:47:00,
2013-01-18 13:52:00,28.4,7.7,30.34,North,350,0.0,0.0,41,0.00,,CLR,0.00,VWS V13.00,2013-01-18 18:52:00,
2013-01-18 13:57:00,27.9,7.2,30.34,North,353,0.0,0.0,41,0.00,,CLR,0.00,VWS V13.00,2013-01-18 18:57:00,
2013-01-18 14:02:00,27.7,6.5,30.31,North,353,0.0,0.0,40,0.00,,CLR,0.00,VWS V13.00,2013-01-18 19:02:00,
2013-01-18 14:07:00,27.5,6.4,30.31,North,353,0.0,0.0,40,0.00,,CLR,0.00,VWS V13.00,2013-01-18 19:07:00,
2013-01-18 14:12:00,27.1,6.0,30.31,North,353,0.0,0.0,40,0.00,,CLR,0.00,VWS V13.00,2013-01-18 19:12:00,
2013-01-18 14:17:00,27.1,6.0,30.31,North,353,0.0,0.0,40,0.00,,CLR,0.00,VWS V13.00,2013-01-18 19:17:00,
2013-01-18 14:22:00,27.3,6.2,30.31,North,353,0.0,0.0,40,0.00,,CLR,0.00,VWS V13.00,2013-01-18 19:22:00,
2013-01-18 14:27:00,27.0,5.9,30.31,North,353,0.0,0.0,40,0.00,,CLR,0.00,VWS V13.00,2013-01-18 19:27:00,
2013-01-18 14:32:00,27.0,5.9,30.34,North,353,0.0,0.0,40,0.00,,CLR,0.00,VWS V13.00,2013-01-18 19:32:00,
2013-01-18 14:37:00,27.0,5.9,30.34,North,353,0.0,0.0,40,0.00,,CLR,0.00,VWS V13.00,2013-01-18 19:37:00,
2013-01-18 14:42:00,26.6,5.0,30.34,North,353,0.0,0.0,39,0.00,,CLR,0.00,VWS V13.00,2013-01-18 19:42:00,
2013-01-18 14:47:00,27.5,6.4,30.34,North,353,0.0,0.0,40,0.00,,CLR,0.00,VWS V13.00,2013-01-18 19:47:00,
2013-01-18 14:52:00,27.3,5.6,30.34,North,353,0.0,0.0,39,0.00,,CLR,0.00,VWS V13.00,2013-01-18 19:52:00,
2013-01-18 14:58:00,26.8,5.2,30.34,North,353,0.0,0.0,39,0.00,,CLR,0.00,VWS V13.00,2013-01-18 19:58:00,
2013-01-18 15:03:00,26.8,5.2,30.34,North,353,0.0,0.0,39,0.00,,CLR,0.00,VWS V13.00,2013-01-18 20:03:00,
2013-01-18 15:08:00,26.8,5.2,30.34,North,353,0.0,0.0,39,0.00,,CLR,0.00,VWS V13.00,2013-01-18 20:08:00,
2013-01-18 15:13:00,26.8,5.2,30.34,North,353,0.0,0.0,39,0.00,,CLR,0.00,VWS V13.00,2013-01-18 20:13:00,
2013-01-18 15:18:00,26.8,5.2,30.31,North,353,0.0,0.0,39,0.00,,CLR,0.00,VWS V13.00,2013-01-18 20:18:00,
2013-01-18 15:23:00,27.3,6.2,30.31,North,353,0.0,0.0,40,0.00,,CLR,0.00,VWS V13.00,2013-01-18 20:23:00,
2013-01-18 15:28:00,27.3,6.2,30.31,North,353,0.0,0.0,40,0.00,,CLR,0.00,VWS V13.00,2013-01-18 20:28:00,
2013-01-18 15:33:00,26.8,5.2,30.34,North,353,0.0,0.0,39,0.00,,CLR,0.00,VWS V13.00,2013-01-18 20:33:00,
2013-01-18 15:38:00,26.6,5.0,30.34,North,353,0.0,0.0,39,0.00,,CLR,0.00,VWS V13.00,2013-01-18 20:38:00,
2013-01-18 15:43:00,26.6,5.0,30.34,North,353,0.0,0.0,39,0.00,,CLR,0.00,VWS V13.00,2013-01-18 20:43:00,
2013-01-18 15:48:00,26.4,5.4,30.34,North,353,0.0,0.0,40,0.00,,CLR,0.00,VWS V13.00,2013-01-18 20:48:00,
2013-01-18 15:53:00,26.4,5.4,30.34,North,353,0.0,0.0,40,0.00,,CLR,0.00,VWS V13.00,2013-01-18 20:53:00,
2013-01-18 15:58:00,26.2,5.2,30.34,North,353,0.0,0.0,40,0.00,,CLR,0.00,VWS V13.00,2013-01-18 20:58:00,
2013-01-18 16:03:00,26.2,5.2,30.34,North,353,0.0,0.0,40,0.00,,CLR,0.00,VWS V13.00,2013-01-18 21:03:00,
2013-01-18 16:08:00,26.1,5.1,30.34,North,353,0.0,0.0,40,0.00,,CLR,0.00,VWS V13.00,2013-01-18 21:08:00,
2013-01-18 16:13:00,25.9,4.9,30.34,North,353,0.0,0.0,40,0.00,,CLR,0.00,VWS V13.00,2013-01-18 21:13:00,
2013-01-18 16:18:00,25.7,4.7,30.34,North,353,0.0,0.0,40,0.00,,CLR,0.00,VWS V13.00,2013-01-18 21:18:00,
2013-01-18 16:23:00,25.5,4.6,30.34,North,353,0.0,0.0,40,0.00,,CLR,0.00,VWS V13.00,2013-01-18 21:23:00,
2013-01-18 16:28:00,25.3,4.4,30.34,North,353,0.0,0.0,40,0.00,,CLR,0.00,VWS V13.00,2013-01-18 21:28:00,
2013-01-18 16:33:00,25.2,4.2,30.34,North,353,0.0,0.0,40,0.00,,CLR,0.00,VWS V13.00,2013-01-18 21:33:00,
2013-01-18 16:39:00,25.0,4.1,30.34,North,353,0.0,0.0,40,0.00,,CLR,0.00,VWS V13.00,2013-01-18 21:39:00,
2013-01-18 16:44:00,24.8,4.4,30.34,North,353,0.0,0.0,41,0.00,,CLR,0.00,VWS V13.00,2013-01-18 21:44:00,
2013-01-18 16:49:00,24.6,4.3,30.34,North,353,0.0,0.0,41,0.00,,CLR,0.00,VWS V13.00,2013-01-18 21:49:00,
2013-01-18 16:54:00,24.4,4.7,30.34,North,353,0.0,0.0,42,0.00,,CLR,0.00,VWS V13.00,2013-01-18 21:54:00,
2013-01-18 16:59:00,24.3,4.5,30.34,North,353,0.0,0.0,42,0.00,,CLR,0.00,VWS V13.00,2013-01-18 21:59:00,
2013-01-18 17:04:00,24.1,4.3,30.34,North,353,0.0,0.0,42,0.00,,CLR,0.00,VWS V13.00,2013-01-18 22:04:00,
2013-01-18 17:09:00,23.9,4.2,30.34,North,353,0.0,0.0,42,0.00,,CLR,0.00,VWS V13.00,2013-01-18 22:09:00,
2013-01-18 17:14:00,23.5,3.8,30.34,North,353,0.0,0.0,42,0.00,,CLR,0.00,VWS V13.00,2013-01-18 22:14:00,
2013-01-18 17:19:00,23.5,3.8,30.34,North,353,0.0,0.0,42,0.00,,CLR,0.00,VWS V13.00,2013-01-18 22:19:00,
2013-01-18 17:24:00,23.4,3.7,30.34,North,353,0.0,0.0,42,0.00,,CLR,0.00,VWS V13.00,2013-01-18 22:24:00,
2013-01-18 17:29:00,23.2,3.5,30.34,North,353,0.0,0.0,42,0.00,,CLR,0.00,VWS V13.00,2013-01-18 22:29:00,
2013-01-18 17:34:00,23.0,3.8,30.37,North,353,0.0,0.0,43,0.00,,CLR,0.00,VWS V13.00,2013-01-18 22:34:00,
2013-01-18 17:39:00,22.8,3.7,30.37,North,353,0.0,0.0,43,0.00,,CLR,0.00,VWS V13.00,2013-01-18 22:39:00,
2013-01-18 17:44:00,22.6,3.5,30.37,North,353,0.0,0.0,43,0.00,,CLR,0.00,VWS V13.00,2013-01-18 22:44:00,
2013-01-18 17:49:00,22.5,3.4,30.37,North,353,0.0,0.0,43,0.00,,CLR,0.00,VWS V13.00,2013-01-18 22:49:00,
2013-01-18 17:54:00,22.3,3.2,30.37,North,353,0.0,0.0,43,0.00,,CLR,0.00,VWS V13.00,2013-01-18 22:54:00,
2013-01-18 17:59:00,22.3,3.7,30.37,North,353,0.0,0.0,44,0.00,,CLR,0.00,VWS V13.00,2013-01-18 22:59:00,
2013-01-18 18:04:00,22.1,3.5,30.37,North,353,0.0,0.0,44,0.00,,CLR,0.00,VWS V13.00,2013-01-18 23:04:00,
2013-01-18 18:09:00,22.1,3.5,30.37,North,353,0.0,0.0,44,0.00,,CLR,0.00,VWS V13.00,2013-01-18 23:09:00,
2013-01-18 18:14:00,22.1,3.5,30.37,North,353,0.0,0.0,44,0.00,,CLR,0.00,VWS V13.00,2013-01-18 23:14:00,
2013-01-18 18:20:00,21.7,3.7,30.37,North,353,0.0,0.0,45,0.00,,CLR,0.00,VWS V13.00,2013-01-18 23:20:00,
2013-01-18 18:25:00,21.7,3.7,30.37,North,353,0.0,0.0,45,0.00,,CLR,0.00,VWS V13.00,2013-01-18 23:25:00,
2013-01-18 18:30:00,21.7,3.7,30.37,North,353,0.0,0.0,45,0.00,,CLR,0.00,VWS V13.00,2013-01-18 23:30:00,
2013-01-18 18:35:00,21.7,4.2,30.37,North,353,0.0,0.0,46,0.00,,CLR,0.00,VWS V13.00,2013-01-18 23:35:00,
2013-01-18 18:40:00,21.6,4.0,30.37,North,353,0.0,0.0,46,0.00,,CLR,0.00,VWS V13.00,2013-01-18 23:40:00,
2013-01-18 18:45:00,21.4,4.3,30.37,North,353,0.0,0.0,47,0.00,,CLR,0.00,VWS V13.00,2013-01-18 23:45:00,
2013-01-18 18:50:00,21.2,4.6,30.37,North,353,0.0,0.0,48,0.00,,CLR,0.00,VWS V13.00,2013-01-18 23:50:00,
2013-01-18 18:55:00,21.2,4.6,30.37,North,353,0.0,0.0,48,0.00,,CLR,0.00,VWS V13.00,2013-01-18 23:55:00,
2013-01-18 19:00:00,21.2,4.6,30.37,North,353,0.0,0.0,48,0.00,,CLR,0.00,VWS V13.00,2013-01-19 00:00:00,
2013-01-18 19:05:00,21.2,5.0,30.37,North,353,0.0,0.0,49,0.00,,CLR,0.00,VWS V13.00,2013-01-19 00:05:00,
2013-01-18 19:10:00,21.2,5.0,30.37,North,353,0.0,0.0,49,0.00,,CLR,0.00,VWS V13.00,2013-01-19 00:10:00,
2013-01-18 19:15:00,21.2,5.0,30.37,North,353,0.0,0.0,49,0.00,,CLR,0.00,VWS V13.00,2013-01-19 00:15:00,
2013-01-18 19:20:00,21.2,5.0,30.37,North,353,0.0,0.0,49,0.00,,CLR,0.00,VWS V13.00,2013-01-19 00:20:00,
2013-01-18 19:25:00,21.0,4.9,30.37,North,353,0.0,0.0,49,0.00,,CLR,0.00,VWS V13.00,2013-01-19 00:25:00,
2013-01-18 19:30:00,20.7,5.0,30.37,North,353,0.0,0.0,50,0.00,,CLR,0.00,VWS V13.00,2013-01-19 00:30:00,
2013-01-18 19:35:00,20.7,5.0,30.34,North,353,0.0,0.0,50,0.00,,CLR,0.00,VWS V13.00,2013-01-19 00:35:00,
2013-01-18 19:40:00,20.7,5.4,30.34,North,353,0.0,0.0,51,0.00,,CLR,0.00,VWS V13.00,2013-01-19 00:40:00,
2013-01-18 19:45:00,20.8,5.6,30.34,North,353,0.0,0.0,51,0.00,,CLR,0.00,VWS V13.00,2013-01-19 00:45:00,
2013-01-18 19:50:00,20.7,5.4,30.34,North,353,0.0,0.0,51,0.00,,CLR,0.00,VWS V13.00,2013-01-19 00:50:00,
2013-01-18 19:55:00,20.7,5.8,30.34,North,353,0.0,0.0,52,0.00,,CLR,0.00,VWS V13.00,2013-01-19 00:55:00,
2013-01-18 20:00:00,20.7,5.8,30.34,North,353,0.0,0.0,52,0.00,,CLR,0.00,VWS V13.00,2013-01-19 01:00:00,
2013-01-18 20:05:00,20.7,5.8,30.34,North,353,0.0,0.0,52,0.00,,CLR,0.00,VWS V13.00,2013-01-19 01:05:00,
2013-01-18 20:10:00,20.7,6.2,30.34,North,353,0.0,0.0,53,0.00,,CLR,0.00,VWS V13.00,2013-01-19 01:10:00,
2013-01-18 20:15:00,20.8,6.4,30.34,North,353,0.0,0.0,53,0.00,,CLR,0.00,VWS V13.00,2013-01-19 01:15:00,
2013-01-18 20:20:00,21.0,6.6,30.34,North,353,0.0,0.0,53,0.00,,CLR,0.00,VWS V13.00,2013-01-19 01:20:00,
2013-01-18 20:25:00,21.0,6.6,30.34,North,353,0.0,0.0,53,0.00,,CLR,0.00,VWS V13.00,2013-01-19 01:25:00,
2013-01-18 20:30:00,21.0,6.2,30.34,North,353,0.0,0.0,52,0.00,,CLR,0.00,VWS V13.00,2013-01-19 01:30:00,
2013-01-18 20:35:00,21.2,6.3,30.34,North,353,0.0,0.0,52,0.00,,,0.00,VWS V13.00,2013-01-19 01:35:00,
2013-01-18 20:40:00,21.2,6.3,30.34,North,353,0.0,0.0,52,0.00,,,0.00,VWS V13.00,2013-01-19 01:40:00,
2013-01-18 20:45:00,21.2,6.3,30.34,North,353,0.0,0.0,52,0.00,,,0.00,VWS V13.00,2013-01-19 01:45:00,
2013-01-18 20:50:00,21.2,6.8,30.34,North,353,0.0,0.0,53,0.00,,,0.00,VWS V13.00,2013-01-19 01:50:00,
2013-01-18 20:55:00,21.2,6.8,30.34,North,353,0.0,0.0,53,0.00,,,0.00,VWS V13.00,2013-01-19 01:55:00,
2013-01-18 21:01:00,21.2,6.8,30.34,North,353,0.0,0.0,53,0.00,,,0.00,VWS V13.00,2013-01-19 02:01:00,
2013-01-18 21:06:00,21.2,6.8,30.34,North,353,0.0,0.0,53,0.00,,,0.00,VWS V13.00,2013-01-19 02:06:00,
2013-01-18 21:11:00,21.2,6.8,30.34,North,353,0.0,0.0,53,0.00,,,0.00,VWS V13.00,2013-01-19 02:11:00,
2013-01-18 21:16:00,21.2,6.8,30.34,North,353,0.0,0.0,53,0.00,,,0.00,VWS V13.00,2013-01-19 02:16:00,
2013-01-18 21:21:00,21.2,6.8,30.37,North,353,0.0,0.0,53,0.00,,,0.00,VWS V13.00,2013-01-19 02:21:00,
2013-01-18 21:26:00,21.2,6.8,30.37,North,353,0.0,0.0,53,0.00,,,0.00,VWS V13.00,2013-01-19 02:26:00,
2013-01-18 21:31:00,21.4,6.5,30.34,North,353,0.0,0.0,52,0.00,,,0.00,VWS V13.00,2013-01-19 02:31:00,
2013-01-18 21:36:00,21.4,6.5,30.34,North,353,0.0,0.0,52,0.00,,CLR,0.00,VWS V13.00,2013-01-19 02:36:00,
2013-01-18 21:41:00,21.4,6.5,30.34,North,353,0.0,0.0,52,0.00,,CLR,0.00,VWS V13.00,2013-01-19 02:41:00,
2013-01-18 21:46:00,21.6,6.7,30.34,North,353,0.0,0.0,52,0.00,,CLR,0.00,VWS V13.00,2013-01-19 02:46:00,
2013-01-18 21:51:00,21.7,6.8,30.34,North,353,0.0,0.0,52,0.00,,CLR,0.00,VWS V13.00,2013-01-19 02:51:00,
2013-01-18 21:56:00,21.9,7.0,30.34,North,353,0.0,0.0,52,0.00,,CLR,0.00,VWS V13.00,2013-01-19 02:56:00,
2013-01-18 22:01:00,21.7,6.8,30.34,North,353,0.0,0.0,52,0.00,,CLR,0.00,VWS V13.00,2013-01-19 03:01:00,
2013-01-18 22:06:00,21.9,7.0,30.34,North,353,0.0,0.0,52,0.00,,CLR,0.00,VWS V13.00,2013-01-19 03:06:00,
2013-01-18 22:11:00,21.9,7.0,30.34,North,353,0.0,0.0,52,0.00,,CLR,0.00,VWS V13.00,2013-01-19 03:11:00,
2013-01-18 22:16:00,21.9,7.0,30.31,North,353,0.0,0.0,52,0.00,,CLR,0.00,VWS V13.00,2013-01-19 03:16:00,
2013-01-18 22:21:00,21.9,7.0,30.31,North,353,0.0,0.0,52,0.00,,CLR,0.00,VWS V13.00,2013-01-19 03:21:00,
2013-01-18 22:26:00,21.9,7.0,30.31,North,353,0.0,0.0,52,0.00,,CLR,0.00,VWS V13.00,2013-01-19 03:26:00,
2013-01-18 22:31:00,22.1,7.2,30.31,North,353,0.0,0.0,52,0.00,,CLR,0.00,VWS V13.00,2013-01-19 03:31:00,
2013-01-18 22:36:00,22.1,7.2,30.31,North,353,0.0,0.0,52,0.00,,CLR,0.00,VWS V13.00,2013-01-19 03:36:00,
2013-01-18 22:41:00,21.9,7.0,30.31,North,353,0.0,0.0,52,0.00,,CLR,0.00,VWS V13.00,2013-01-19 03:41:00,
2013-01-18 22:46:00,21.9,7.0,30.31,North,353,0.0,0.0,52,0.00,,CLR,0.00,VWS V13.00,2013-01-19 03:46:00,
2013-01-18 22:51:00,21.9,7.0,30.31,North,353,0.0,0.0,52,0.00,,CLR,0.00,VWS V13.00,2013-01-19 03:51:00,
2013-01-18 22:56:00,21.9,7.0,30.31,North,353,0.0,0.0,52,0.00,,CLR,0.00,VWS V13.00,2013-01-19 03:56:00,
2013-01-18 23:02:00,21.9,7.0,30.31,North,353,0.0,0.0,52,0.00,,CLR,0.00,VWS V13.00,2013-01-19 04:02:00,
2013-01-18 23:07:00,21.7,6.8,30.31,North,353,0.0,0.0,52,0.00,,CLR,0.00,VWS V13.00,2013-01-19 04:07:00,
2013-01-18 23:12:00,21.7,6.8,30.31,North,353,0.0,0.0,52,0.00,,CLR,0.00,VWS V13.00,2013-01-19 04:12:00,
2013-01-18 23:17:00,21.7,6.8,30.31,North,353,0.0,0.0,52,0.00,,CLR,0.00,VWS V13.00,2013-01-19 04:17:00,
2013-01-18 23:22:00,21.7,6.8,30.31,North,353,0.0,0.0,52,0.00,,CLR,0.00,VWS V13.00,2013-01-19 04:22:00,
2013-01-18 23:27:00,21.7,6.8,30.31,North,353,0.0,0.0,52,0.00,,CLR,0.00,VWS V13.00,2013-01-19 04:27:00,
2013-01-18 23:32:00,21.7,6.8,30.28,North,353,0.0,0.0,52,0.00,,CLR,0.00,VWS V13.00,2013-01-19 04:32:00,
2013-01-18 23:37:00,21.7,6.8,30.28,North,353,0.0,0.0,52,0.00,,FEW075,0.00,VWS V13.00,2013-01-19 04:37:00,
2013-01-18 23:42:00,21.9,7.0,30.28,North,353,0.0,0.0,52,0.00,,FEW075,0.00,VWS V13.00,2013-01-19 04:42:00,
2013-01-18 23:47:00,21.9,7.0,30.28,North,353,0.0,0.0,52,0.00,,FEW075,0.00,VWS V13.00,2013-01-19 04:47:00,
2013-01-18 23:52:00,21.9,7.0,30.28,North,353,0.0,0.0,52,0.00,,FEW075,0.00,VWS V13.00,2013-01-19 04:52:00,
2013-01-18 23:57:00,21.9,7.0,30.28,North,353,0.0,0.0,52,0.00,,FEW075,0.00,VWS V13.00,2013-01-19 04:57:00,